Weather in Rutul

Russia / Republic of Dagestan     41°32′03″N   47°25′45″E
temp.,
°C
wind,
m/s
gust,
m/s
humid.,
%
clouds,
%
prec.,
mm/h
press.,
hPa
HPBL,
m
23 september, thu
thu2300:00+9ssw238339 0.6 101074
03:00+7sw238419 1.0 101050
06:00+7wsw2382100 0.2 101141
09:00+13s02560 0.2 1009842
12:00+15se24475 0.1 10071544
15:00+16s25405 0.2 10061790
18:00+10ssw22691 0.0 100836
21:00+9wsw33705 0.0 100938
24 september, fri
fri2400:00+9wsw23705 0.0 100833
03:00+9wsw33690 0.0 100743
06:00+8sw33720 0.0 100750
09:00+16sw38383 0.0 10052054
12:00+17ssw39325 0.0 10052284
15:00+13se365694 0.1 10071305
18:00+7ese2392100 0.9 1011208
21:00+7ese1297100 11.4 1012238
25 september, sat
sat2500:00+5ese1297100 5.2 1013249
03:00+5e1297100 12.1 1012285
06:00+5nw2395100 9.4 1013359
09:00+9sw346525 13.2 10111028
12:00+12sw46422 0.0 10091390
15:00+12wsw46362 0.0 10091314
18:00+7w44476 0.0 101379
21:00+5w44585 0.0 101564
26 september, sun
sun2600:00+4w33615 0.0 101646
03:00+3wsw22712 0.0 101737
06:00+1w118012 0.0 101934
09:00+7se12504 0.0 1018822
12:00+10sse23382 0.0 10161326
15:00+10ssw24411 0.0 10161057
18:00+5wsw23625 0.0 101954
21:00+4wsw44665 0.0 101984
27 september, mon
mon2700:00+3w44742 0.0 101871
03:00+2w44760 0.0 101865
06:00+2w33740 0.0 101739
09:00+9ese12480 0.0 1015724
12:00+12se13370 0.0 10121023
15:00+11ese23464 0.0 1013773
18:00+5se228348 0.0 1017150
21:00+4ssw127713 0.0 101772